FW4753 Weather Reports


Display with metric or nautical units.
time (UTC)temp
F
wind
direction
speed
MPH
gust
MPH
rain 1hr
in
rain 24hr
in
rain mn
in
humidity
%
barometer
mb
20200330234050 36 0.0 0.0 0.00 0.02 0.00 89 1014.0
20200330232044 35 0.0 0.0 0.00 0.02 0.00 87 1014.1
20200330231041 35 0.0 0.0 0.00 0.02 0.00 86 1014.1
20200330230038 35 0.0 0.0 0.00 0.02 0.00 86 1014.2
20200330225035 35 0.0 0.0 0.00 0.02 0.00 86 1014.3
20200330224032 35 0.0 0.0 0.00 0.02 0.00 85 1014.3
20200330223029 35 0.0 0.0 0.00 0.02 0.00 84 1014.4
20200330222025 35 0.0 0.0 0.00 0.02 0.00 83 1014.4
20200330221022 35 0.0 0.0 0.00 0.02 0.00 83 1014.4
20200330220021 35 0.0 0.0 0.00 0.02 0.00 82 1014.4
20200330215016 36 0.0 0.0 0.00 0.02 0.02 82 1014.5
20200330214113 36 0.0 0.0 0.00 0.02 0.02 81 1014.7
20200330213111 36 0.0 0.0 0.00 0.02 0.02 80 1014.8
20200330212107 37 0.0 0.0 0.00 0.02 0.02 80 1014.8
20200330211104 37 0.0 0.0 0.00 0.02 0.02 80 1014.9
20200330210101 38 90 0.0 0.0 0.00 0.02 0.02 80 1014.6
20200330205058 38 90 0.0 1.0 0.00 0.02 0.02 80 1014.7
20200330204055 39 0.0 0.0 0.00 0.02 0.02 80 1014.7
20200330203104 40 90 0.0 1.0 0.00 0.02 0.02 79 1014.8
20200330202049 40 54 0.0 2.0 0.00 0.02 0.02 78 1015.0
20200330201046 40 18 1.0 3.0 0.00 0.02 0.02 78 1014.9
20200330200042 41 17 1.0 3.0 0.00 0.02 0.02 77 1014.9
20200330195040 41 35 1.0 3.0 0.00 0.02 0.02 76 1014.8
20200330194036 41 29 3.0 4.0 0.00 0.02 0.02 76 1014.8
20200330193034 41 51 1.0 3.0 0.00 0.02 0.02 75 1014.7
20200330192030 41 11 2.0 3.0 0.00 0.02 0.02 75 1014.6
20200330191027 41 45 2.0 3.0 0.00 0.02 0.02 75 1014.5
20200330190024 41 18 2.0 5.0 0.00 0.02 0.02 76 1014.5
20200330185021 41 40 2.0 3.0 0.00 0.02 0.02 76 1014.4
20200330184018 41 35 2.0 3.0 0.00 0.02 0.02 76 1014.2
20200330183015 40 45 1.0 3.0 0.00 0.02 0.02 76 1014.1
20200330182112 40 45 1.0 2.0 0.00 0.02 0.02 74 1014.1
20200330181109 41 45 0.0 2.0 0.00 0.02 0.02 71 1014.1
20200330180106 42 41 1.0 2.0 0.00 0.02 0.02 71 1014.1
20200330175103 42 40 2.0 3.0 0.00 0.02 0.02 70 1014.0
20200330174101 43 11 3.0 5.0 0.00 0.02 0.02 70 1014.0
20200330173057 43 4 3.0 4.0 0.00 0.02 0.02 68 1014.0
20200330171050 44 5 5.0 6.0 0.00 0.02 0.02 67 1013.8
20200330170047 44 31 4.0 7.0 0.00 0.02 0.02 66 1013.8
20200330165044 44 357 3.0 6.0 0.00 0.02 0.02 64 1013.8
20200330164041 45 355 3.0 6.0 0.00 0.02 0.02 62 1013.7
20200330163038 45 2 3.0 6.0 0.00 0.02 0.02 62 1013.7
20200330162035 45 8 4.0 7.0 0.00 0.02 0.02 58 1013.8
20200330161032 46 2 3.0 4.0 0.00 0.02 0.02 55 1013.8
20200330160029 46 357 2.0 3.0 0.00 0.02 0.02 58 1013.8
20200330155026 45 43 3.0 5.0 0.00 0.02 0.02 61 1013.9
20200330154023 45 356 3.0 5.0 0.00 0.02 0.02 60 1014.0
20200330153020 45 5 3.0 5.0 0.00 0.02 0.02 58 1014.0
20200330152017 46 353 3.0 5.0 0.00 0.02 0.02 57 1014.0
20200330151114 46 198 1.0 5.0 0.00 0.02 0.02 60 1014.0
20200330150111 46 295 2.0 4.0 0.00 0.02 0.02 60 1014.0
20200330145108 45 305 4.0 7.0 0.00 0.02 0.02 61 1014.1
20200330144104 46 345 2.0 6.0 0.00 0.02 0.02 61 1014.2
20200330143102 46 358 1.0 4.0 0.00 0.02 0.02 61 1014.2
20200330142058 46 345 2.0 4.0 0.00 0.02 0.02 61 1014.3
20200330141055 46 336 2.0 5.0 0.00 0.02 0.02 61 1014.3
20200330140052 46 230 2.0 6.0 0.00 0.02 0.02 62 1014.3
20200330135049 47 353 3.0 7.0 0.00 0.02 0.02 60 1014.3
20200330134046 47 262 1.0 5.0 0.00 0.02 0.02 60 1014.4
20200330133057 46 295 2.0 6.0 0.00 0.02 0.02 61 1014.5
20200330132040 46 260 2.0 4.0 0.00 0.02 0.02 61 1014.5
20200330131036 45 279 3.0 5.0 0.00 0.02 0.02 61 1014.5
20200330130033 46 329 3.0 7.0 0.00 0.02 0.02 61 1014.5
20200330125030 46 334 3.0 6.0 0.00 0.02 0.02 60 1014.6
20200330124027 47 281 2.0 4.0 0.00 0.02 0.02 62 1014.7
20200330123025 46 319 2.0 6.0 0.00 0.02 0.02 62 1014.7
20200330122021 45 320 3.0 7.0 0.00 0.02 0.02 67 1014.8
20200330121018 43 246 3.0 6.0 0.00 0.02 0.02 71 1014.7
20200330120015 43 253 4.0 7.0 0.00 0.02 0.02 72 1014.9
20200330115112 43 210 3.0 6.0 0.00 0.02 0.02 72 1014.9
20200330114109 45 239 4.0 6.0 0.00 0.02 0.02 79 1014.9
20200330113111 43 237 2.0 5.0 0.00 0.02 0.02 79 1015.0
20200330112103 43 324 1.0 3.0 0.00 0.02 0.02 80 1015.1
20200330111100 42 231 2.0 5.0 0.00 0.02 0.02 80 1015.2
20200330110101 42 281 3.0 6.0 0.00 0.02 0.02 81 1015.2
20200330105053 42 274 3.0 6.0 0.00 0.02 0.02 81 1015.3
20200330103048 41 210 2.0 6.0 0.00 0.02 0.02 80 1015.4
20200330102044 41 278 4.0 7.0 0.00 0.02 0.02 81 1015.5
20200330101041 41 240 2.0 5.0 0.00 0.02 0.02 81 1015.6
20200330100038 41 193 3.0 6.0 0.00 0.02 0.02 82 1015.6
20200330095035 40 298 3.0 7.0 0.00 0.02 0.02 83 1015.6
20200330094039 40 268 4.0 9.0 0.00 0.02 0.02 84 1015.7
20200330093029 39 268 4.0 8.0 0.00 0.02 0.02 86 1015.8
20200330090019 38 310 3.0 6.0 0.00 0.02 0.02 88 1015.7
20200330085016 38 248 3.0 9.0 0.00 0.02 0.02 88 1015.6
20200330084113 38 245 2.0 5.0 0.00 0.02 0.02 89 1015.5
20200330083110 38 252 3.0 7.0 0.00 0.02 0.02 89 1015.4
20200330082107 38 265 4.0 6.0 0.00 0.02 0.02 89 1015.4
20200330081104 38 302 4.0 8.0 0.00 0.02 0.02 90 1015.2
20200330080101 38 274 3.0 8.0 0.00 0.02 0.02 90 1015.1
20200330075058 38 192 2.0 4.0 0.00 0.02 0.02 90 1015.0
20200330074055 37 252 4.0 6.0 0.00 0.02 0.02 90 1015.0
20200330073052 37 292 3.0 7.0 0.00 0.02 0.02 90 1014.9
20200330072049 37 253 3.0 9.0 0.00 0.02 0.02 90 1014.9
20200330071046 37 264 3.0 6.0 0.00 0.02 0.02 90 1014.9
20200330070043 37 287 3.0 6.0 0.00 0.02 0.02 90 1014.9
20200330065039 37 264 2.0 6.0 0.00 0.02 0.02 90 1014.9
20200330064037 37 308 4.0 6.0 0.01 0.02 0.02 90 1014.8
20200330063033 37 244 2.0 5.0 0.01 0.02 0.02 90 1014.7
20200330062030 37 315 3.0 7.0 0.01 0.02 0.02 91 1014.7
20200330061027 37 203 4.0 8.0 0.01 0.02 0.02 91 1014.6
20200330060024 37 225 4.0 6.0 0.01 0.02 0.02 91 1014.5
20200330055021 37 290 3.0 9.0 0.01 0.02 0.02 91 1014.4
20200330054018 37 225 3.0 6.0 0.00 0.01 0.01 91 1014.3
20200330053015 37 263 4.0 7.0 0.00 0.01 0.01 91 1014.3
20200330052112 37 233 3.0 6.0 0.00 0.01 0.01 91 1014.4
20200330051109 37 268 3.0 5.0 0.00 0.01 0.01 91 1014.4
20200330050106 37 232 3.0 6.0 0.00 0.01 0.01 91 1014.4
20200330045130 37 244 4.0 8.0 0.00 0.01 0.01 90 1014.4
20200330044059 37 232 2.0 6.0 0.00 0.01 0.01 90 1014.2
20200330043056 37 246 3.0 11.0 0.00 0.01 0.01 90 1014.3
20200330042053 37 262 3.0 7.0 0.01 0.01 0.01 90 1014.2
20200330041050 37 252 2.0 6.0 0.01 0.01 0.01 89 1014.4
20200330040047 37 244 2.0 4.0 0.01 0.01 0.01 89 1014.4
20200330035044 37 298 2.0 4.0 0.01 0.01 0.01 88 1014.6
20200330034041 37 274 2.0 5.0 0.01 0.01 0.01 87 1014.6
20200330033038 37 276 3.0 6.0 0.01 0.01 0.01 86 1014.7
20200330032035 37 295 3.0 6.0 0.00 0.00 0.00 86 1014.8
20200330031032 38 235 2.0 6.0 0.00 0.00 0.00 84 1014.8
20200330030028 38 325 2.0 5.0 0.00 0.00 0.00 84 1014.9
20200330025025 38 347 2.0 6.0 0.00 0.00 0.00 83 1014.8
20200330024022 39 7 2.0 5.0 0.00 0.00 0.00 83 1014.8
20200330023019 39 292 2.0 5.0 0.00 0.00 0.00 82 1014.8
20200330022016 39 305 3.0 6.0 0.00 0.00 0.00 82 1014.9
20200330021113 39 304 3.0 8.0 0.00 0.00 0.00 82 1014.9
20200330020123 39 315 2.0 4.0 0.00 0.00 0.00 81 1014.8
20200330015107 39 202 2.0 4.0 0.00 0.00 0.00 81 1014.9
20200330014104 39 124 2.0 6.0 0.00 0.00 0.00 81 1014.8
20200330013101 39 322 3.0 6.0 0.00 0.00 0.00 81 1014.8
20200330012058 39 268 2.0 4.0 0.00 0.00 0.00 82 1014.8
20200330011055 39 305 3.0 6.0 0.00 0.00 0.00 82 1014.9
20200330010052 39 292 2.0 6.0 0.00 0.00 0.00 82 1015.0
20200330005048 39 303 2.0 4.0 0.00 0.00 0.00 82 1015.0
20200330004045 39 176 3.0 6.0 0.00 0.00 0.00 82 1015.1
20200330003042 39 291 2.0 4.0 0.00 0.00 0.00 82 1015.1
20200330002039 39 263 3.0 5.0 0.00 0.00 0.00 81 1015.2
20200330001036 39 276 3.0 7.0 0.00 0.00 0.00 81 1015.3
20200330000033 39 251 2.0 7.0 0.00 0.00 0.00 81 1015.4